Find Starlink 5147

NORAD ID: 53985 Int'l Des: 2022-125 Owner: SPXS Country: US Constellation: starlink operational
LEOCIRCULAR

Live-Position

3D-Globus wird geladen...

Über Starlink 5147

Beschreibung wird geladen...

Nächste Überflüge

Passes for default location (London). Set your location on the main map for personalized predictions.

Höhenverlauf

Loading altitude history...

Zweizeiliger Elementsatz

1 53985U 22125X 26130.18964372 -.00000203 00000-0 53505-5 0 9993
2 53985 53.2180 298.2704 0001168 94.1132 265.9993 15.08838017198742
Epoch: 10. Mai 2026 • Age: 10 hours

Aktueller Status

Höhe 545.4 km
Geschwindigkeit 7.60 km/s
Subsatellitenpunkt 52.51°N, 45.67°W
Startdatum 5. Okt. 2022
Alter 3.5 years
Typ internet

Technische Details

Klassifizierung Payload
Masse 305.00 kg
Trockenmasse 290.00 kg
Gesamtmasse 305.00 kg
Länge 0.20 m
Durchmesser 2.80 m
Spannweite 9.00 m
Form Box + pan
Hersteller SPXS
Bus-Typ Starlink
Phasenstatus In Orbit
Besitzer/Staat SPXS/US

Most Searched